Buffalo, NY

1:58 AM EDT on October 23, 2019 (GMT -0400)
Buffalo Niagara International

Weather History for KBUF - August, 2019

Change the Weather History Date:

Thursday, August 15, 2019

  Actual Average Record
Temperature  
Mean Temperature 71 °F 70 °F  
Max Temperature 80 °F 79 °F 92 °F (1959)
Min Temperature 61 °F 61 °F 47 °F (1962)
Degree Days  
Heating Degree Days 0 0  
Month to date heating degree days 0 0  
Since 1 June heating degree days 62 73  
Since 1 July heating degree days 0 9  
Cooling Degree Days 6 5  
Month to date cooling degree days 99 89  
Year to date cooling degree days 467 415  
Since 1 June cooling degree days 459 389  
Growing Degree Days 20 (Base 50)    
Moisture  
Dew Point 56 °F    
Average Humidity 63    
Maximum Humidity 78    
Minimum Humidity 48    
Precipitation  
Precipitation 0.00 in 0.10 in 2.85 in (2015)
Month to date precipitation 1.57 1.62  
Year to date precipitation 26.32 23.52  
Snow  
Snow 0.00 in 0.00 in 0.00 in ()
Month to date snowfall 0.0 0.0  
Since 1 June snowfall 0.0 0.0  
Since 1 July snowfall 0.0 0.0  
Snow Depth 0.00 in    
Sea Level Pressure  
Sea Level Pressure 29.97 in    
Wind  
Wind Speed 9 mph (ENE)    
Max Wind Speed 16 mph    
Max Gust Speed 21 mph    
Visibility 10 miles    
Events      
T = Trace of Precipitation, MM = Missing Value Source: NWS Daily Summary

Daily Weather History Graph

Daily Weather History Graph

Search for Another Location

Airport or City:

Astronomy

Aug. 15, 2019 Rise Set
Actual Time 6:20 AM EDT 8:17 PM EDT
Civil Twilight 5:50 AM EDT 8:47 PM EDT
Nautical Twilight 5:12 AM EDT 9:25 PM EDT
Astronomical Twilight 4:31 AM EDT 10:05 PM EDT
Moon 8:45 PM EDT (8/15) 6:11 AM EDT (8/15)
Length of Visible Light 14h 57m
Length of Day
13h 56m
Full, 100% of the Moon is Illuminated
Aug 15
Full
Aug 23
Last Quarter
Aug 30
New
Sep 5
First Quarter
Sep 14
Full

Hourly Weather History & Observations

Time (EDT) Temp. Dew Point Humidity Pressure Visibility Wind Dir Wind Speed Gust Speed Precip Events Conditions
12:54 AM 64.0 °F 54.0 °F 70% 30.01 in 10.0 mi SE 5.8 mph - N/A   Scattered Clouds
1:54 AM 63.0 °F 54.0 °F 72% 30.00 in 10.0 mi East 4.6 mph - N/A   Partly Cloudy
2:54 AM 62.1 °F 54.0 °F 75% 30.00 in 10.0 mi East 3.5 mph - N/A   Partly Cloudy
3:54 AM 62.1 °F 54.0 °F 75% 30.00 in 10.0 mi East 4.6 mph - N/A   Scattered Clouds
4:54 AM 62.1 °F 54.0 °F 75% 30.00 in 10.0 mi ENE 5.8 mph - N/A   Overcast
5:54 AM 62.1 °F 55.9 °F 80% 30.00 in 10.0 mi ENE 6.9 mph - N/A   Overcast
6:54 AM 63.0 °F 55.0 °F 75% 30.00 in 10.0 mi East 8.1 mph - N/A   Mostly Cloudy
7:54 AM 64.9 °F 54.0 °F 68% 30.00 in 10.0 mi ESE 10.4 mph - N/A   Partly Cloudy
8:54 AM 68.0 °F 54.0 °F 61% 30.01 in 10.0 mi East 8.1 mph - N/A   Scattered Clouds
9:54 AM 72.0 °F 55.9 °F 57% 30.00 in 10.0 mi ENE 9.2 mph - N/A   Mostly Cloudy
10:54 AM 73.9 °F 57.0 °F 55% 30.00 in 10.0 mi NE 6.9 mph - N/A   Mostly Cloudy
11:54 AM 75.9 °F 57.0 °F 52% 29.99 in 10.0 mi ENE 8.1 mph - N/A   Partly Cloudy
12:54 PM 75.9 °F 57.0 °F 52% 29.98 in 10.0 mi ENE 10.4 mph - N/A   Mostly Cloudy
1:54 PM 78.1 °F 59.0 °F 52% 29.96 in 10.0 mi ENE 12.7 mph - N/A   Mostly Cloudy
2:54 PM 78.1 °F 59.0 °F 52% 29.94 in 10.0 mi ENE 9.2 mph - N/A   Overcast
3:54 PM 79.0 °F 59.0 °F 50% 29.92 in 10.0 mi NE 12.7 mph - N/A   Mostly Cloudy
4:54 PM 79.0 °F 57.9 °F 48% 29.93 in 10.0 mi ENE 10.4 mph - N/A   Mostly Cloudy
5:54 PM 75.9 °F 60.1 °F 58% 29.93 in 10.0 mi NE 12.7 mph - N/A   Mostly Cloudy
6:54 PM 73.0 °F 57.9 °F 59% 29.92 in 10.0 mi NE 13.8 mph - N/A   Mostly Cloudy
7:54 PM 71.1 °F 57.0 °F 61% 29.95 in 10.0 mi NE 10.4 mph - N/A   Mostly Cloudy
8:54 PM 69.1 °F 55.9 °F 63% 29.94 in 10.0 mi NE 9.2 mph - N/A   Mostly Cloudy
9:54 PM 69.1 °F 57.0 °F 65% 29.95 in 10.0 mi ENE 9.2 mph - N/A   Mostly Cloudy
10:54 PM 66.9 °F 57.0 °F 70% 29.95 in 10.0 mi NE 8.1 mph - N/A   Mostly Cloudy
11:54 PM 66.0 °F 57.9 °F 75% 29.95 in 10.0 mi NE 8.1 mph - N/A   Mostly Cloudy